TimePST,TemperatureF,Dew PointF,Humidity,Sea Level PressureIn,VisibilityMPH,Wind Direction,Wind SpeedMPH,Gust SpeedMPH,PrecipitationIn,Events,Conditions,WindDirDegrees,DateUTC
12:15 AM,42.8,37.4,81,30.53,10.0,East,9.2,-,N/A,,Clear,90,2014-01-15 08:15:00
12:35 AM,42.8,37.4,81,30.53,10.0,East,6.9,-,N/A,,Clear,80,2014-01-15 08:35:00
12:55 AM,42.8,37.4,81,30.53,10.0,ENE,4.6,-,N/A,,Clear,70,2014-01-15 08:55:00
1:15 AM,42.8,37.4,81,-9999,10.0,East,4.6,-,N/A,,Clear,90,2014-01-15 09:15:00
1:35 AM,41.0,37.4,87,30.52,10.0,Calm,Calm,-,N/A,,Clear,0,2014-01-15 09:35:00
1:55 AM,42.8,37.4,81,30.52,10.0,East,6.9,-,N/A,,Clear,90,2014-01-15 09:55:00
2:15 AM,41.0,37.4,87,-9999,10.0,East,4.6,-,N/A,,Clear,80,2014-01-15 10:15:00
2:35 AM,41.0,37.4,87,30.53,10.0,ENE,4.6,-,N/A,,Clear,70,2014-01-15 10:35:00
2:55 AM,41.0,37.4,87,30.53,10.0,NE,3.5,-,N/A,,Clear,50,2014-01-15 10:55:00
3:15 AM,41.0,37.4,87,30.53,10.0,East,4.6,-,N/A,,Clear,80,2014-01-15 11:15:00
3:35 AM,41.0,37.4,87,30.54,10.0,East,4.6,-,N/A,,Clear,80,2014-01-15 11:35:00
3:55 AM,41.0,35.6,81,30.54,10.0,NE,4.6,-,N/A,,Clear,50,2014-01-15 11:55:00
4:15 AM,41.0,37.4,87,30.53,10.0,East,8.1,-,N/A,,Clear,90,2014-01-15 12:15:00
4:35 AM,39.2,35.6,87,30.53,10.0,ENE,6.9,-,N/A,,Clear,70,2014-01-15 12:35:00
4:55 AM,41.0,37.4,87,30.53,10.0,ENE,6.9,-,N/A,,Clear,70,2014-01-15 12:55:00
5:15 AM,41.0,35.6,81,-9999,10.0,ENE,8.1,-,N/A,,Clear,70,2014-01-15 13:15:00
5:35 AM,41.0,35.6,81,30.52,10.0,NE,3.5,-,N/A,,Clear,40,2014-01-15 13:35:00
5:55 AM,39.2,35.6,87,30.52,10.0,NE,3.5,-,N/A,,Clear,50,2014-01-15 13:55:00
6:15 AM,41.0,35.6,81,30.51,10.0,NNE,4.6,-,N/A,,Clear,20,2014-01-15 14:15:00
6:35 AM,41.0,35.6,81,30.51,10.0,Calm,Calm,-,N/A,,Clear,0,2014-01-15 14:35:00
6:55 AM,39.2,35.6,87,30.51,10.0,NE,3.5,-,N/A,,Clear,40,2014-01-15 14:55:00
7:15 AM,37.4,33.8,87,30.51,10.0,NE,3.5,-,N/A,,Clear,50,2014-01-15 15:15:00
7:35 AM,37.4,33.8,87,30.52,10.0,NE,3.5,-,N/A,,Clear,40,2014-01-15 15:35:00
7:55 AM,37.4,33.8,87,30.52,10.0,ENE,6.9,-,N/A,,Clear,70,2014-01-15 15:55:00
8:15 AM,37.4,33.8,87,30.52,10.0,East,6.9,-,N/A,,Clear,80,2014-01-15 16:15:00
8:35 AM,39.2,35.6,87,30.52,10.0,East,10.4,-,N/A,,Clear,90,2014-01-15 16:35:00
8:55 AM,41.0,35.6,81,30.53,10.0,East,13.8,-,N/A,,Clear,90,2014-01-15 16:55:00
9:15 AM,42.8,35.6,76,30.53,10.0,East,12.7,-,N/A,,Clear,80,2014-01-15 17:15:00
9:35 AM,42.8,35.6,76,30.52,10.0,East,13.8,-,N/A,,Clear,90,2014-01-15 17:35:00
9:55 AM,44.6,35.6,71,30.52,10.0,East,9.2,17.3,N/A,,Clear,100,2014-01-15 17:55:00
10:15 AM,46.4,37.4,71,30.52,10.0,East,9.2,-,N/A,,Clear,80,2014-01-15 18:15:00
10:35 AM,46.4,37.4,71,30.51,10.0,East,5.8,-,N/A,,Clear,90,2014-01-15 18:35:00
10:55 AM,50.0,37.4,62,30.51,10.0,East,6.9,-,N/A,,Clear,80,2014-01-15 18:55:00
11:15 AM,50.0,37.4,62,30.51,10.0,ENE,8.1,-,N/A,,Clear,70,2014-01-15 19:15:00
11:35 AM,50.0,37.4,62,30.50,10.0,East,5.8,-,N/A,,Clear,80,2014-01-15 19:35:00
11:55 AM,51.8,39.2,62,30.49,10.0,East,8.1,-,N/A,,Clear,90,2014-01-15 19:55:00
12:15 PM,51.8,39.2,62,30.48,10.0,East,6.9,-,N/A,,Clear,80,2014-01-15 20:15:00
12:35 PM,53.6,39.2,58,30.47,10.0,East,8.1,-,N/A,,Clear,80,2014-01-15 20:35:00
12:55 PM,53.6,41.0,62,30.46,10.0,ENE,6.9,-,N/A,,Clear,70,2014-01-15 20:55:00
1:15 PM,53.6,41.0,62,30.45,10.0,East,9.2,-,N/A,,Clear,80,2014-01-15 21:15:00
1:35 PM,55.4,41.0,58,30.44,10.0,East,5.8,-,N/A,,Clear,80,2014-01-15 21:35:00
1:55 PM,55.4,41.0,58,30.44,10.0,ENE,5.8,-,N/A,,Clear,70,2014-01-15 21:55:00
2:15 PM,55.4,39.2,54,30.43,10.0,NNE,4.6,-,N/A,,Clear,30,2014-01-15 22:15:00
2:35 PM,53.6,42.8,67,30.43,5.0,NNW,5.8,-,N/A,,Haze,330,2014-01-15 22:35:00
2:55 PM,53.6,44.6,72,30.43,4.0,NNW,4.6,-,N/A,,Haze,340,2014-01-15 22:55:00
3:15 PM,55.4,41.0,58,30.43,7.0,NE,6.9,-,N/A,,Clear,40,2014-01-15 23:15:00
3:35 PM,55.4,41.0,58,30.42,10.0,NE,6.9,-,N/A,,Clear,50,2014-01-15 23:35:00
3:55 PM,53.6,39.2,58,30.42,10.0,NE,6.9,-,N/A,,Clear,40,2014-01-15 23:55:00
4:15 PM,53.6,37.4,54,30.42,10.0,NE,5.8,-,N/A,,Clear,50,2014-01-16 00:15:00
4:35 PM,51.8,37.4,58,30.42,10.0,NE,5.8,-,N/A,,Clear,40,2014-01-16 00:35:00
4:55 PM,50.0,37.4,62,30.42,10.0,NE,4.6,-,N/A,,Clear,40,2014-01-16 00:55:00
5:15 PM,48.2,37.4,66,30.41,10.0,NE,4.6,-,N/A,,Clear,50,2014-01-16 01:15:00
5:35 PM,46.4,37.4,71,30.41,10.0,NE,3.5,-,N/A,,Clear,50,2014-01-16 01:35:00
5:55 PM,46.4,37.4,71,30.41,10.0,Calm,Calm,-,N/A,,Clear,0,2014-01-16 01:55:00
6:15 PM,44.6,35.6,71,30.40,10.0,ENE,4.6,-,N/A,,Clear,60,2014-01-16 02:15:00
6:35 PM,44.6,35.6,71,30.40,10.0,East,4.6,-,N/A,,Clear,80,2014-01-16 02:35:00
6:55 PM,42.8,35.6,76,30.40,10.0,East,10.4,-,N/A,,Clear,80,2014-01-16 02:55:00
7:15 PM,42.8,35.6,76,30.40,10.0,East,17.3,-,N/A,,Clear,80,2014-01-16 03:15:00
7:35 PM,44.6,33.8,66,30.41,10.0,East,13.8,-,N/A,,Clear,80,2014-01-16 03:35:00
7:55 PM,42.8,33.8,70,30.40,10.0,East,12.7,-,N/A,,Clear,90,2014-01-16 03:55:00
8:15 PM,42.8,33.8,70,30.40,10.0,East,12.7,17.3,N/A,,Clear,80,2014-01-16 04:15:00
8:35 PM,42.8,33.8,70,30.40,10.0,East,13.8,-,N/A,,Clear,80,2014-01-16 04:35:00
8:55 PM,42.8,32.0,66,30.40,10.0,East,18.4,-,N/A,,Clear,80,2014-01-16 04:55:00
9:15 PM,42.8,32.0,66,30.40,10.0,East,17.3,23.0,N/A,,Clear,80,2014-01-16 05:15:00
9:35 PM,42.8,32.0,66,30.40,10.0,East,18.4,24.2,N/A,,Clear,80,2014-01-16 05:35:00
9:55 PM,44.6,32.0,61,30.40,10.0,East,18.4,24.2,N/A,,Clear,80,2014-01-16 05:55:00
10:15 PM,44.6,32.0,61,30.40,10.0,East,18.4,-,N/A,,Clear,80,2014-01-16 06:15:00
10:35 PM,44.6,32.0,61,30.40,10.0,East,17.3,23.0,N/A,,Clear,80,2014-01-16 06:35:00
10:55 PM,44.6,32.0,61,30.40,10.0,East,15.0,24.2,N/A,,Clear,80,2014-01-16 06:55:00
11:15 PM,44.6,32.0,61,30.41,10.0,East,10.4,17.3,N/A,,Clear,90,2014-01-16 07:15:00
11:35 PM,44.6,32.0,61,30.41,10.0,East,13.8,19.6,N/A,,Clear,90,2014-01-16 07:35:00
11:55 PM,44.6,32.0,61,30.40,10.0,East,17.3,23.0,N/A,,Clear,80,2014-01-16 07:55:00